Time,TemperatureF,DewpointF,PressureIn,WindDirection,WindDirectionDegrees,WindSpeedMPH,WindSpeedGustMPH,Humidity,HourlyPrecipIn,Conditions,Clouds,dailyrainin,SolarRadiationWatts/m^2,SoftwareType,DateUTC
2013-03-04 00:00:00,32.6,27.4,29.61,West,279,0.0,1.0,81,0.00,,,0.00,0,Wunderground v.1.15,2013-03-04 05:00:00,
2013-03-04 00:01:00,32.6,27.4,29.61,WNW,298,2.0,2.0,81,0.00,,,0.00,0,Wunderground v.1.15,2013-03-04 05:01:00,
2013-03-04 00:06:00,32.6,27.4,29.61,NW,312,2.0,2.0,81,0.00,,,0.00,0,Wunderground v.1.15,2013-03-04 05:06:00,
2013-03-04 00:11:00,32.6,27.4,29.61,WNW,297,0.0,2.0,81,0.00,,,0.00,0,Wunderground v.1.15,2013-03-04 05:11:00,
2013-03-04 00:17:00,32.5,27.3,29.60,West,261,3.0,5.0,81,0.00,,,0.00,0,Wunderground v.1.15,2013-03-04 05:17:00,
2013-03-04 00:22:00,32.5,27.0,29.61,West,280,2.0,2.0,80,0.00,,,0.00,0,Wunderground v.1.15,2013-03-04 05:22:00,
2013-03-04 00:27:00,32.5,27.0,29.61,SW,234,0.0,2.0,80,0.00,,,0.00,0,Wunderground v.1.15,2013-03-04 05:27:00,
2013-03-04 00:35:00,32.5,27.0,29.60,NNE,28,1.0,2.0,80,0.00,,,0.00,0,Wunderground v.1.15,2013-03-04 05:35:00,
2013-03-04 00:50:00,32.4,26.6,29.61,NNW,330,4.0,4.0,79,0.00,,,0.00,0,Wunderground v.1.15,2013-03-04 05:50:00,
2013-03-04 00:56:00,32.4,26.6,29.61,WNW,300,1.0,4.0,79,0.00,,,0.00,0,Wunderground v.1.15,2013-03-04 05:56:00,
2013-03-04 01:01:00,32.4,26.6,29.61,SW,231,0.0,2.0,79,0.00,,,0.00,0,Wunderground v.1.15,2013-03-04 06:01:00,
2013-03-04 01:07:00,32.4,26.6,29.61,West,270,2.0,4.0,79,0.00,,,0.00,0,Wunderground v.1.15,2013-03-04 06:07:00,
2013-03-04 01:12:00,32.4,26.6,29.61,West,273,0.0,2.0,79,0.00,,,0.00,0,Wunderground v.1.15,2013-03-04 06:12:00,
2013-03-04 01:18:00,32.4,26.6,29.61,WNW,292,3.0,4.0,79,0.00,,,0.00,0,Wunderground v.1.15,2013-03-04 06:18:00,
2013-03-04 01:24:00,32.4,26.9,29.61,West,267,0.0,2.0,80,0.00,,,0.00,0,Wunderground v.1.15,2013-03-04 06:24:00,
2013-03-04 01:30:00,32.4,26.6,29.61,West,261,2.0,2.0,79,0.00,,,0.00,0,Wunderground v.1.15,2013-03-04 06:30:00,
2013-03-04 01:37:00,32.3,26.5,29.61,NNW,347,1.0,3.0,79,0.00,,,0.00,0,Wunderground v.1.15,2013-03-04 06:37:00,
2013-03-04 01:42:00,32.3,26.5,29.61,NW,308,1.0,2.0,79,0.00,,,0.00,0,Wunderground v.1.15,2013-03-04 06:42:00,
2013-03-04 01:48:00,32.3,26.5,29.61,WSW,242,2.0,4.0,79,0.00,,,0.00,0,Wunderground v.1.15,2013-03-04 06:48:00,
2013-03-04 01:53:00,32.2,26.4,29.61,West,263,2.0,4.0,79,0.00,,,0.00,0,Wunderground v.1.15,2013-03-04 06:53:00,
2013-03-04 01:58:00,32.2,26.4,29.61,NNW,329,3.0,4.0,79,0.00,,,0.00,0,Wunderground v.1.15,2013-03-04 06:58:00,
2013-03-04 02:03:00,32.1,26.3,29.61,NNE,25,1.0,6.0,79,0.00,,,0.00,0,Wunderground v.1.15,2013-03-04 07:03:00,
2013-03-04 02:08:00,32.1,26.3,29.61,NW,324,0.0,6.0,79,0.00,,,0.00,0,Wunderground v.1.15,2013-03-04 07:08:00,
2013-03-04 02:13:00,32.0,26.2,29.61,WSW,254,1.0,3.0,79,0.00,,,0.00,0,Wunderground v.1.15,2013-03-04 07:13:00,
2013-03-04 02:18:00,32.0,26.2,29.61,WNW,294,3.0,6.0,79,0.00,,,0.00,0,Wunderground v.1.15,2013-03-04 07:18:00,
2013-03-04 02:23:00,31.9,25.8,29.61,NW,322,2.0,3.0,78,0.00,,,0.00,0,Wunderground v.1.15,2013-03-04 07:23:00,
2013-03-04 02:28:00,31.9,25.8,29.61,West,275,2.0,7.0,78,0.00,,,0.00,0,Wunderground v.1.15,2013-03-04 07:28:00,
2013-03-04 02:33:00,31.8,25.7,29.61,NW,306,3.0,4.0,78,0.00,,,0.00,0,Wunderground v.1.15,2013-03-04 07:33:00,
2013-03-04 02:39:00,31.7,25.6,29.61,WNW,289,3.0,4.0,78,0.00,,,0.00,0,Wunderground v.1.15,2013-03-04 07:39:00,
2013-03-04 02:44:00,31.6,25.5,29.61,North,349,1.0,7.0,78,0.00,,,0.00,0,Wunderground v.1.15,2013-03-04 07:44:00,
2013-03-04 02:49:00,31.5,25.7,29.61,WSW,246,3.0,7.0,79,0.00,,,0.00,0,Wunderground v.1.15,2013-03-04 07:49:00,
2013-03-04 02:54:00,31.4,25.6,29.61,WNW,285,1.0,4.0,79,0.00,,,0.00,0,Wunderground v.1.15,2013-03-04 07:54:00,
2013-03-04 02:59:00,31.3,25.5,29.61,West,275,3.0,9.0,79,0.00,,,0.00,0,Wunderground v.1.15,2013-03-04 07:59:00,
2013-03-04 03:04:00,31.2,25.4,29.61,West,278,1.0,4.0,79,0.00,,,0.00,0,Wunderground v.1.15,2013-03-04 08:04:00,
2013-03-04 03:09:00,31.1,25.3,29.62,NNW,330,2.0,4.0,79,0.00,,,0.00,0,Wunderground v.1.15,2013-03-04 08:09:00,
2013-03-04 03:14:00,31.0,25.2,29.62,NW,305,0.0,3.0,79,0.00,,,0.00,0,Wunderground v.1.15,2013-03-04 08:14:00,
2013-03-04 03:19:00,30.9,25.2,29.62,WNW,287,4.0,4.0,79,0.00,,,0.00,0,Wunderground v.1.15,2013-03-04 08:19:00,
2013-03-04 03:25:00,30.8,24.7,29.62,WNW,298,2.0,5.0,78,0.00,,,0.00,0,Wunderground v.1.15,2013-03-04 08:25:00,
2013-03-04 03:30:00,30.7,25.0,29.62,West,279,1.0,3.0,79,0.00,,,0.00,0,Wunderground v.1.15,2013-03-04 08:30:00,
2013-03-04 03:35:00,30.6,24.6,29.62,West,272,2.0,6.0,78,0.00,,,0.00,0,Wunderground v.1.15,2013-03-04 08:35:00,
2013-03-04 03:40:00,30.5,24.5,29.62,West,281,1.0,4.0,78,0.00,,,0.00,0,Wunderground v.1.15,2013-03-04 08:40:00,
2013-03-04 03:45:00,30.5,24.5,29.62,SW,229,1.0,7.0,78,0.00,,,0.00,0,Wunderground v.1.15,2013-03-04 08:45:00,
2013-03-04 03:50:00,30.3,24.0,29.62,West,267,2.0,5.0,77,0.00,,,0.00,0,Wunderground v.1.15,2013-03-04 08:50:00,
2013-03-04 03:55:00,30.2,23.9,29.63,WSW,252,1.0,10.0,77,0.00,,,0.00,0,Wunderground v.1.15,2013-03-04 08:55:00,
2013-03-04 04:00:00,30.2,24.2,29.62,West,271,5.0,5.0,78,0.00,,,0.00,0,Wunderground v.1.15,2013-03-04 09:00:00,
2013-03-04 04:05:00,30.0,24.0,29.63,WNW,296,1.0,8.0,78,0.00,,,0.00,0,Wunderground v.1.15,2013-03-04 09:05:00,
2013-03-04 04:10:00,29.9,23.9,29.62,West,269,3.0,4.0,78,0.00,,,0.00,0,Wunderground v.1.15,2013-03-04 09:10:00,
2013-03-04 04:15:00,29.8,23.8,29.62,West,277,3.0,10.0,78,0.00,,,0.00,0,Wunderground v.1.15,2013-03-04 09:15:00,
2013-03-04 04:20:00,29.7,23.4,29.62,West,277,4.0,6.0,77,0.00,,,0.00,0,Wunderground v.1.15,2013-03-04 09:20:00,
2013-03-04 04:26:00,29.6,23.3,29.63,NW,319,3.0,6.0,77,0.00,,,0.00,0,Wunderground v.1.15,2013-03-04 09:26:00,
2013-03-04 04:31:00,29.5,23.2,29.63,NW,310,3.0,6.0,77,0.00,,,0.00,0,Wunderground v.1.15,2013-03-04 09:31:00,
2013-03-04 04:36:00,29.3,23.3,29.62,WNW,290,4.0,6.0,78,0.00,,,0.00,0,Wunderground v.1.15,2013-03-04 09:36:00,
2013-03-04 04:41:00,29.3,23.3,29.63,West,267,0.0,5.0,78,0.00,,,0.00,0,Wunderground v.1.15,2013-03-04 09:41:00,
2013-03-04 04:46:00,29.2,23.2,29.63,NW,319,0.0,10.0,78,0.00,,,0.00,0,Wunderground v.1.15,2013-03-04 09:46:00,
2013-03-04 04:51:00,29.2,23.2,29.63,West,259,5.0,8.0,78,0.00,,,0.00,0,Wunderground v.1.15,2013-03-04 09:51:00,
2013-03-04 04:56:00,29.2,23.2,29.62,West,274,0.0,8.0,78,0.00,,,0.00,0,Wunderground v.1.15,2013-03-04 09:56:00,
2013-03-04 05:01:00,29.2,23.2,29.63,West,279,2.0,9.0,78,0.00,,,0.00,0,Wunderground v.1.15,2013-03-04 10:01:00,
2013-03-04 05:06:00,29.2,23.2,29.63,West,273,1.0,9.0,78,0.00,,,0.00,0,Wunderground v.1.15,2013-03-04 10:06:00,
2013-03-04 05:11:00,29.2,23.2,29.63,WSW,257,3.0,5.0,78,0.00,,,0.00,0,Wunderground v.1.15,2013-03-04 10:11:00,
2013-03-04 05:16:00,29.2,23.2,29.63,WNW,292,3.0,10.0,78,0.00,,,0.00,0,Wunderground v.1.15,2013-03-04 10:16:00,
2013-03-04 05:21:00,29.2,23.2,29.63,SW,235,2.0,6.0,78,0.00,,,0.00,0,Wunderground v.1.15,2013-03-04 10:21:00,
2013-03-04 05:26:00,29.2,23.2,29.63,West,265,2.0,11.0,78,0.00,,,0.00,0,Wunderground v.1.15,2013-03-04 10:26:00,
2013-03-04 05:31:00,29.1,22.8,29.63,WNW,295,2.0,5.0,77,0.00,,,0.00,0,Wunderground v.1.15,2013-03-04 10:31:00,
2013-03-04 05:36:00,29.1,22.8,29.63,SW,219,2.0,7.0,77,0.00,,,0.00,0,Wunderground v.1.15,2013-03-04 10:36:00,
2013-03-04 05:41:00,29.0,22.7,29.64,NNE,12,3.0,10.0,77,0.00,,,0.00,0,Wunderground v.1.15,2013-03-04 10:41:00,
2013-03-04 05:47:00,29.0,22.7,29.64,SW,227,4.0,10.0,77,0.00,,,0.00,0,Wunderground v.1.15,2013-03-04 10:47:00,
2013-03-04 05:52:00,28.9,22.6,29.64,WNW,290,3.0,5.0,77,0.00,,,0.00,0,Wunderground v.1.15,2013-03-04 10:52:00,
2013-03-04 05:57:00,28.9,22.6,29.64,West,277,3.0,9.0,77,0.00,,,0.00,0,Wunderground v.1.15,2013-03-04 10:57:00,
2013-03-04 06:02:00,28.9,22.6,29.64,WNW,287,2.0,5.0,77,0.00,,,0.00,0,Wunderground v.1.15,2013-03-04 11:02:00,
2013-03-04 06:07:00,28.8,22.5,29.64,WSW,257,1.0,7.0,77,0.00,,,0.00,0,Wunderground v.1.15,2013-03-04 11:07:00,
2013-03-04 06:12:00,28.7,22.4,29.64,West,273,2.0,5.0,77,0.00,,,0.00,0,Wunderground v.1.15,2013-03-04 11:12:00,
2013-03-04 06:17:00,28.7,22.4,29.64,WSW,256,3.0,12.0,77,0.00,,,0.00,0,Wunderground v.1.15,2013-03-04 11:17:00,
2013-03-04 06:22:00,28.6,22.3,29.64,SW,224,2.0,6.0,77,0.00,,,0.00,0,Wunderground v.1.15,2013-03-04 11:22:00,
2013-03-04 06:27:00,28.5,22.2,29.64,West,266,3.0,11.0,77,0.00,,,0.00,5,Wunderground v.1.15,2013-03-04 11:27:00,
2013-03-04 06:32:00,28.5,22.2,29.64,West,281,2.0,12.0,77,0.00,,,0.00,7,Wunderground v.1.15,2013-03-04 11:32:00,
2013-03-04 06:37:00,28.4,21.8,29.65,West,281,6.0,12.0,76,0.00,,,0.00,11,Wunderground v.1.15,2013-03-04 11:37:00,
2013-03-04 06:42:00,28.4,21.5,29.65,West,277,2.0,8.0,75,0.00,,,0.00,19,Wunderground v.1.15,2013-03-04 11:42:00,
2013-03-04 06:47:00,28.4,21.8,29.65,West,277,6.0,9.0,76,0.00,,,0.00,19,Wunderground v.1.15,2013-03-04 11:47:00,
2013-03-04 06:52:00,28.5,21.9,29.66,NW,315,1.0,5.0,76,0.00,,,0.00,19,Wunderground v.1.15,2013-03-04 11:52:00,
2013-03-04 06:57:00,28.4,21.8,29.65,SW,229,1.0,6.0,76,0.00,,,0.00,18,Wunderground v.1.15,2013-03-04 11:57:00,
2013-03-04 07:02:00,28.5,21.9,29.66,NNW,336,3.0,5.0,76,0.00,,,0.00,25,Wunderground v.1.15,2013-03-04 12:02:00,
2013-03-04 07:07:00,28.5,21.9,29.65,West,277,3.0,5.0,76,0.00,,,0.00,25,Wunderground v.1.15,2013-03-04 12:07:00,
2013-03-04 07:12:00,28.7,22.1,29.66,NW,305,1.0,4.0,76,0.00,,,0.00,25,Wunderground v.1.15,2013-03-04 12:12:00,
2013-03-04 07:17:00,28.8,21.9,29.66,NNW,332,4.0,7.0,75,0.00,,,0.00,26,Wunderground v.1.15,2013-03-04 12:17:00,
2013-03-04 07:23:00,29.0,21.7,29.66,West,271,3.0,7.0,74,0.00,,,0.00,28,Wunderground v.1.15,2013-03-04 12:23:00,
2013-03-04 07:28:00,29.1,21.8,29.66,WNW,300,1.0,8.0,74,0.00,,,0.00,26,Wunderground v.1.15,2013-03-04 12:28:00,
2013-03-04 07:33:00,29.3,22.0,29.65,WNW,287,1.0,8.0,74,0.00,,,0.00,28,Wunderground v.1.15,2013-03-04 12:33:00,
2013-03-04 07:38:00,29.5,22.2,29.66,WNW,287,1.0,9.0,74,0.00,,,0.00,32,Wunderground v.1.15,2013-03-04 12:38:00,
2013-03-04 07:43:00,29.6,22.0,29.66,WNW,300,1.0,15.0,73,0.00,,,0.00,44,Wunderground v.1.15,2013-03-04 12:43:00,
2013-03-04 07:48:00,29.7,22.1,29.65,West,273,3.0,15.0,73,0.00,,,0.00,37,Wunderground v.1.15,2013-03-04 12:48:00,
2013-03-04 07:53:00,29.8,22.2,29.65,West,274,5.0,14.0,73,0.00,,,0.00,37,Wunderground v.1.15,2013-03-04 12:53:00,
2013-03-04 07:58:00,29.9,22.3,29.65,West,261,4.0,14.0,73,0.00,,,0.00,39,Wunderground v.1.15,2013-03-04 12:58:00,
2013-03-04 08:03:00,30.0,22.1,29.65,NNE,12,6.0,11.0,72,0.00,,,0.00,40,Wunderground v.1.15,2013-03-04 13:03:00,
2013-03-04 08:08:00,30.1,22.2,29.65,NE,42,3.0,12.0,72,0.00,,,0.00,53,Wunderground v.1.15,2013-03-04 13:08:00,
2013-03-04 08:13:00,30.3,22.7,29.65,NW,309,5.0,9.0,73,0.00,,,0.00,76,Wunderground v.1.15,2013-03-04 13:13:00,
2013-03-04 08:18:00,30.6,23.0,29.65,West,260,6.0,9.0,73,0.00,,,0.00,74,Wunderground v.1.15,2013-03-04 13:18:00,
2013-03-04 08:24:00,30.9,22.9,29.65,SSW,199,4.0,14.0,72,0.00,,,0.00,77,Wunderground v.1.15,2013-03-04 13:24:00,
2013-03-04 08:29:00,31.1,23.1,29.65,WSW,258,3.0,14.0,72,0.00,,,0.00,65,Wunderground v.1.15,2013-03-04 13:29:00,
2013-03-04 08:34:00,31.2,23.2,29.65,NNW,329,1.0,9.0,72,0.00,,,0.00,81,Wunderground v.1.15,2013-03-04 13:34:00,
2013-03-04 08:39:00,31.4,23.4,29.65,NNW,327,4.0,14.0,72,0.00,,,0.00,90,Wunderground v.1.15,2013-03-04 13:39:00,
2013-03-04 08:44:00,31.6,23.3,29.65,West,279,6.0,6.0,71,0.00,,,0.00,127,Wunderground v.1.15,2013-03-04 13:44:00,
2013-03-04 08:49:00,32.0,23.7,29.65,West,265,3.0,7.0,71,0.00,,,0.00,204,Wunderground v.1.15,2013-03-04 13:49:00,
2013-03-04 08:55:00,32.4,23.7,29.65,North,350,1.0,17.0,70,0.00,,,0.00,285,Wunderground v.1.15,2013-03-04 13:55:00,
2013-03-04 09:00:00,32.9,24.2,29.65,NNW,332,1.0,4.0,70,0.00,,,0.00,250,Wunderground v.1.15,2013-03-04 14:00:00,
2013-03-04 09:05:00,33.5,24.4,29.65,WNW,288,2.0,11.0,69,0.00,,,0.00,258,Wunderground v.1.15,2013-03-04 14:05:00,
2013-03-04 09:10:00,33.9,24.4,29.64,WNW,284,3.0,4.0,68,0.00,,,0.00,220,Wunderground v.1.15,2013-03-04 14:10:00,
2013-03-04 09:15:00,34.1,23.9,29.64,East,93,6.0,18.0,66,0.00,,,0.00,171,Wunderground v.1.15,2013-03-04 14:15:00,
2013-03-04 09:20:00,34.3,24.1,29.64,West,270,1.0,4.0,66,0.00,,,0.00,355,Wunderground v.1.15,2013-03-04 14:20:00,
2013-03-04 09:25:00,34.5,24.3,29.64,SW,222,1.0,13.0,66,0.00,,,0.00,105,Wunderground v.1.15,2013-03-04 14:25:00,
2013-03-04 09:30:00,34.8,24.2,29.63,SSW,198,3.0,7.0,65,0.00,,,0.00,234,Wunderground v.1.15,2013-03-04 14:30:00,
2013-03-04 09:35:00,35.2,25.0,29.63,NW,311,2.0,9.0,66,0.00,,,0.00,241,Wunderground v.1.15,2013-03-04 14:35:00,
2013-03-04 09:40:00,35.7,25.1,29.63,West,269,3.0,10.0,65,0.00,,,0.00,401,Wunderground v.1.15,2013-03-04 14:40:00,
2013-03-04 09:45:00,36.2,24.8,29.64,WNW,298,6.0,15.0,63,0.00,,,0.00,504,Wunderground v.1.15,2013-03-04 14:45:00,
2013-03-04 09:50:00,36.6,24.8,29.63,SW,229,5.0,6.0,62,0.00,,,0.00,582,Wunderground v.1.15,2013-03-04 14:50:00,
2013-03-04 09:56:00,36.9,25.1,29.63,WSW,255,3.0,11.0,62,0.00,,,0.00,608,Wunderground v.1.15,2013-03-04 14:56:00,
2013-03-04 10:01:00,37.3,25.5,29.63,West,275,7.0,15.0,62,0.00,,,0.00,580,Wunderground v.1.15,2013-03-04 15:01:00,
2013-03-04 10:06:00,37.3,25.5,29.63,West,272,3.0,16.0,62,0.00,,,0.00,540,Wunderground v.1.15,2013-03-04 15:06:00,
2013-03-04 10:11:00,37.6,25.7,29.63,West,262,6.0,10.0,62,0.00,,,0.00,543,Wunderground v.1.15,2013-03-04 15:11:00,
2013-03-04 10:16:00,37.9,25.2,29.63,WSW,244,13.0,13.0,60,0.00,,,0.00,555,Wunderground v.1.15,2013-03-04 15:16:00,
2013-03-04 10:21:00,38.2,25.9,29.62,West,278,2.0,5.0,61,0.00,,,0.00,601,Wunderground v.1.15,2013-03-04 15:21:00,
2013-03-04 10:26:00,38.9,25.8,29.62,WSW,246,5.0,10.0,59,0.00,,,0.00,679,Wunderground v.1.15,2013-03-04 15:26:00,
2013-03-04 10:31:00,39.5,25.9,29.62,West,273,4.0,12.0,58,0.00,,,0.00,585,Wunderground v.1.15,2013-03-04 15:31:00,
2013-03-04 10:36:00,39.8,25.8,29.62,NNW,327,2.0,12.0,57,0.00,,,0.00,415,Wunderground v.1.15,2013-03-04 15:36:00,
2013-03-04 10:41:00,39.7,26.1,29.62,West,275,0.0,7.0,58,0.00,,,0.00,515,Wunderground v.1.15,2013-03-04 15:41:00,
2013-03-04 10:46:00,39.8,26.2,29.62,West,271,4.0,10.0,58,0.00,,,0.00,360,Wunderground v.1.15,2013-03-04 15:46:00,
2013-03-04 10:51:00,39.7,25.7,29.62,WSW,250,3.0,6.0,57,0.00,,,0.00,422,Wunderground v.1.15,2013-03-04 15:51:00,
2013-03-04 10:56:00,39.7,25.7,29.62,NW,317,3.0,17.0,57,0.00,,,0.00,605,Wunderground v.1.15,2013-03-04 15:56:00,
2013-03-04 11:01:00,39.9,25.9,29.62,WSW,238,7.0,17.0,57,0.00,,,0.00,657,Wunderground v.1.15,2013-03-04 16:01:00,
2013-03-04 11:06:00,40.0,25.6,29.62,WSW,256,3.0,17.0,56,0.00,,,0.00,487,Wunderground v.1.15,2013-03-04 16:06:00,
2013-03-04 11:11:00,39.7,25.3,29.61,NW,304,3.0,11.0,56,0.00,,,0.00,687,Wunderground v.1.15,2013-03-04 16:11:00,
2013-03-04 11:16:00,40.0,26.0,29.61,West,276,9.0,15.0,57,0.00,,,0.00,715,Wunderground v.1.15,2013-03-04 16:16:00,
2013-03-04 11:21:00,40.4,25.9,29.61,NW,304,9.0,12.0,56,0.00,,,0.00,680,Wunderground v.1.15,2013-03-04 16:21:00,
2013-03-04 11:26:00,40.8,25.9,29.61,NNE,28,12.0,14.0,55,0.00,,,0.00,325,Wunderground v.1.15,2013-03-04 16:26:00,
2013-03-04 11:31:00,40.9,26.4,29.61,WSW,237,11.0,11.0,56,0.00,,,0.00,200,Wunderground v.1.15,2013-03-04 16:31:00,
2013-03-04 11:37:00,40.7,25.8,29.61,NNW,336,5.0,11.0,55,0.00,,,0.00,316,Wunderground v.1.15,2013-03-04 16:37:00,
2013-03-04 11:42:00,40.8,25.9,29.61,NNE,25,6.0,12.0,55,0.00,,,0.00,288,Wunderground v.1.15,2013-03-04 16:42:00,
2013-03-04 11:47:00,40.8,25.4,29.61,WNW,297,7.0,12.0,54,0.00,,,0.00,246,Wunderground v.1.15,2013-03-04 16:47:00,
2013-03-04 11:52:00,40.5,25.1,29.61,NNW,339,7.0,9.0,54,0.00,,,0.00,193,Wunderground v.1.15,2013-03-04 16:52:00,
2013-03-04 11:57:00,40.0,25.1,29.61,WNW,300,2.0,13.0,55,0.00,,,0.00,192,Wunderground v.1.15,2013-03-04 16:57:00,
2013-03-04 12:02:00,39.5,25.1,29.61,NW,314,3.0,6.0,56,0.00,,,0.00,213,Wunderground v.1.15,2013-03-04 17:02:00,
2013-03-04 12:07:00,39.2,24.8,29.61,WSW,238,6.0,10.0,56,0.00,,,0.00,316,Wunderground v.1.15,2013-03-04 17:07:00,
2013-03-04 12:12:00,39.1,25.6,29.61,NE,45,2.0,6.0,58,0.00,,,0.00,181,Wunderground v.1.15,2013-03-04 17:12:00,
2013-03-04 12:17:00,39.0,25.0,29.61,ESE,106,3.0,7.0,57,0.00,,,0.00,225,Wunderground v.1.15,2013-03-04 17:17:00,
2013-03-04 12:22:00,38.9,24.9,29.61,WNW,290,1.0,6.0,57,0.00,,,0.00,287,Wunderground v.1.15,2013-03-04 17:22:00,
2013-03-04 12:27:00,38.9,24.9,29.61,NE,34,1.0,11.0,57,0.00,,,0.00,251,Wunderground v.1.15,2013-03-04 17:27:00,
2013-03-04 12:32:00,38.9,25.4,29.61,NNW,331,4.0,13.0,58,0.00,,,0.00,241,Wunderground v.1.15,2013-03-04 17:32:00,
2013-03-04 12:37:00,38.8,24.9,29.61,North,355,2.0,13.0,57,0.00,,,0.00,202,Wunderground v.1.15,2013-03-04 17:37:00,
2013-03-04 12:42:00,38.8,25.3,29.61,West,266,3.0,9.0,58,0.00,,,0.00,195,Wunderground v.1.15,2013-03-04 17:42:00,
2013-03-04 12:47:00,38.8,25.3,29.61,WNW,282,2.0,12.0,58,0.00,,,0.00,167,Wunderground v.1.15,2013-03-04 17:47:00,
2013-03-04 12:52:00,38.7,25.2,29.61,West,279,1.0,10.0,58,0.00,,,0.00,165,Wunderground v.1.15,2013-03-04 17:52:00,
2013-03-04 12:57:00,38.8,25.7,29.60,NW,313,2.0,10.0,59,0.00,,,0.00,292,Wunderground v.1.15,2013-03-04 17:57:00,
2013-03-04 13:03:00,39.0,25.5,29.60,WSW,250,4.0,16.0,58,0.00,,,0.00,262,Wunderground v.1.15,2013-03-04 18:03:00,
2013-03-04 13:08:00,39.2,25.6,29.60,NNW,344,5.0,16.0,58,0.00,,,0.00,290,Wunderground v.1.15,2013-03-04 18:08:00,
2013-03-04 13:13:00,39.2,26.1,29.60,SW,231,2.0,14.0,59,0.00,,,0.00,199,Wunderground v.1.15,2013-03-04 18:13:00,
2013-03-04 13:18:00,39.2,25.6,29.60,WNW,295,6.0,16.0,58,0.00,,,0.00,190,Wunderground v.1.15,2013-03-04 18:18:00,
2013-03-04 13:23:00,39.1,25.6,29.60,West,265,0.0,10.0,58,0.00,,,0.00,206,Wunderground v.1.15,2013-03-04 18:23:00,
2013-03-04 13:28:00,39.0,25.5,29.60,NNE,24,2.0,14.0,58,0.00,,,0.00,193,Wunderground v.1.15,2013-03-04 18:28:00,
2013-03-04 13:29:00,39.0,25.5,29.60,WSW,255,1.0,14.0,58,0.00,,,0.00,190,Wunderground v.1.15,2013-03-04 18:29:00,
2013-03-04 13:30:00,39.0,25.5,29.60,WSW,255,0.0,4.0,58,0.00,,,0.00,188,Wunderground v.1.15,2013-03-04 18:30:00,
2013-03-04 13:35:00,39.1,25.6,29.60,NW,319,2.0,11.0,58,0.00,,,0.00,186,Wunderground v.1.15,2013-03-04 18:35:00,
2013-03-04 13:40:00,39.2,25.6,29.60,WNW,294,7.0,12.0,58,0.00,,,0.00,192,Wunderground v.1.15,2013-03-04 18:40:00,
2013-03-04 13:45:00,39.3,25.7,29.60,NNW,342,3.0,12.0,58,0.00,,,0.00,197,Wunderground v.1.15,2013-03-04 18:45:00,
2013-03-04 13:50:00,39.3,25.7,29.60,North,355,4.0,7.0,58,0.00,,,0.00,209,Wunderground v.1.15,2013-03-04 18:50:00,
2013-03-04 13:55:00,39.4,25.8,29.60,WSW,256,5.0,9.0,58,0.00,,,0.00,236,Wunderground v.1.15,2013-03-04 18:55:00,
2013-03-04 14:00:00,39.5,26.3,29.60,NW,321,14.0,14.0,59,0.00,,,0.00,234,Wunderground v.1.15,2013-03-04 19:00:00,
2013-03-04 14:05:00,39.6,26.4,29.60,WNW,296,4.0,15.0,59,0.00,,,0.00,218,Wunderground v.1.15,2013-03-04 19:05:00,
2013-03-04 14:10:00,39.7,26.1,29.60,NE,43,5.0,5.0,58,0.00,,,0.00,214,Wunderground v.1.15,2013-03-04 19:10:00,
2013-03-04 14:16:00,39.9,26.7,29.60,WSW,252,5.0,12.0,59,0.00,,,0.00,269,Wunderground v.1.15,2013-03-04 19:16:00,
2013-03-04 14:21:00,40.1,27.3,29.60,WSW,256,5.0,5.0,60,0.00,,,0.00,227,Wunderground v.1.15,2013-03-04 19:21:00,
2013-03-04 14:26:00,40.4,27.2,29.60,NE,35,7.0,7.0,59,0.00,,,0.00,315,Wunderground v.1.15,2013-03-04 19:26:00,
2013-03-04 14:31:00,40.5,26.9,29.60,ENE,57,4.0,7.0,58,0.00,,,0.00,260,Wunderground v.1.15,2013-03-04 19:31:00,
2013-03-04 14:36:00,40.7,27.1,29.60,NNE,18,6.0,9.0,58,0.00,,,0.00,320,Wunderground v.1.15,2013-03-04 19:36:00,
2013-03-04 14:41:00,40.9,26.8,29.60,NW,308,3.0,9.0,57,0.00,,,0.00,323,Wunderground v.1.15,2013-03-04 19:41:00,
2013-03-04 14:46:00,41.1,27.4,29.60,NNW,342,4.0,10.0,58,0.00,,,0.00,225,Wunderground v.1.15,2013-03-04 19:46:00,
2013-03-04 14:51:00,41.2,27.1,29.60,SW,232,1.0,7.0,57,0.00,,,0.00,179,Wunderground v.1.15,2013-03-04 19:51:00,
2013-03-04 14:56:00,41.2,27.1,29.60,West,275,17.0,17.0,57,0.00,,,0.00,178,Wunderground v.1.15,2013-03-04 19:56:00,
2013-03-04 15:01:00,41.1,27.0,29.60,WNW,284,2.0,5.0,57,0.00,,,0.00,197,Wunderground v.1.15,2013-03-04 20:01:00,
2013-03-04 15:06:00,41.1,27.0,29.60,ENE,61,4.0,5.0,57,0.00,,,0.00,172,Wunderground v.1.15,2013-03-04 20:06:00,
2013-03-04 15:11:00,41.0,27.3,29.60,SW,235,5.0,10.0,58,0.00,,,0.00,160,Wunderground v.1.15,2013-03-04 20:11:00,
2013-03-04 15:16:00,40.7,26.6,29.60,NNW,337,3.0,11.0,57,0.00,,,0.00,127,Wunderground v.1.15,2013-03-04 20:16:00,
2013-03-04 15:21:00,40.5,26.4,29.61,WNW,300,4.0,6.0,57,0.00,,,0.00,125,Wunderground v.1.15,2013-03-04 20:21:00,
2013-03-04 15:26:00,40.3,26.7,29.61,WNW,300,3.0,9.0,58,0.00,,,0.00,127,Wunderground v.1.15,2013-03-04 20:26:00,
2013-03-04 15:31:00,40.1,26.9,29.60,West,277,4.0,9.0,59,0.00,,,0.00,109,Wunderground v.1.15,2013-03-04 20:31:00,
2013-03-04 15:36:00,39.9,27.5,29.61,West,266,5.0,10.0,61,0.00,,,0.00,90,Wunderground v.1.15,2013-03-04 20:36:00,
2013-03-04 15:41:00,39.5,27.9,29.61,WSW,250,12.0,12.0,63,0.00,,,0.00,93,Wunderground v.1.15,2013-03-04 20:41:00,
2013-03-04 15:46:00,39.0,28.2,29.61,WNW,292,3.0,12.0,65,0.00,,,0.00,100,Wunderground v.1.15,2013-03-04 20:46:00,
2013-03-04 15:51:00,38.6,27.8,29.61,NNE,27,4.0,6.0,65,0.00,,,0.00,100,Wunderground v.1.15,2013-03-04 20:51:00,
2013-03-04 15:56:00,38.5,27.7,29.61,NNW,345,2.0,11.0,65,0.00,,,0.00,93,Wunderground v.1.15,2013-03-04 20:56:00,
2013-03-04 16:03:00,38.3,27.6,29.62,North,10,3.0,7.0,65,0.00,,,0.00,79,Wunderground v.1.15,2013-03-04 21:03:00,
2013-03-04 16:08:00,38.3,27.9,29.62,NW,323,3.0,7.0,66,0.00,,,0.00,69,Wunderground v.1.15,2013-03-04 21:08:00,
2013-03-04 16:13:00,38.1,27.7,29.62,WSW,252,3.0,5.0,66,0.00,,,0.00,63,Wunderground v.1.15,2013-03-04 21:13:00,
2013-03-04 16:18:00,38.0,27.6,29.61,NNW,348,3.0,5.0,66,0.00,,,0.00,60,Wunderground v.1.15,2013-03-04 21:18:00,
2013-03-04 16:23:00,37.9,27.5,29.61,WNW,303,3.0,6.0,66,0.00,,,0.00,54,Wunderground v.1.15,2013-03-04 21:23:00,
2013-03-04 16:28:00,37.8,27.5,29.62,WSW,243,2.0,12.0,66,0.00,,,0.00,49,Wunderground v.1.15,2013-03-04 21:28:00,
2013-03-04 16:34:00,37.8,27.5,29.62,WNW,296,3.0,7.0,66,0.00,,,0.00,49,Wunderground v.1.15,2013-03-04 21:34:00,
2013-03-04 16:39:00,37.7,27.0,29.62,WSW,255,1.0,7.0,65,0.00,,,0.00,49,Wunderground v.1.15,2013-03-04 21:39:00,
2013-03-04 16:44:00,37.7,27.0,29.62,West,280,1.0,6.0,65,0.00,,,0.00,47,Wunderground v.1.15,2013-03-04 21:44:00,
2013-03-04 16:49:00,37.6,27.3,29.62,NNE,17,2.0,7.0,66,0.00,,,0.00,30,Wunderground v.1.15,2013-03-04 21:49:00,
2013-03-04 16:54:00,37.5,26.8,29.63,North,355,5.0,10.0,65,0.00,,,0.00,19,Wunderground v.1.15,2013-03-04 21:54:00,
2013-03-04 16:59:00,37.5,26.4,29.63,NE,44,3.0,11.0,64,0.00,,,0.00,19,Wunderground v.1.15,2013-03-04 21:59:00,
2013-03-04 17:04:00,37.4,26.3,29.63,NE,42,5.0,7.0,64,0.00,,,0.00,14,Wunderground v.1.15,2013-03-04 22:04:00,
2013-03-04 17:09:00,37.4,26.3,29.63,NE,49,2.0,11.0,64,0.00,,,0.00,11,Wunderground v.1.15,2013-03-04 22:09:00,
2013-03-04 17:15:00,37.3,26.2,29.63,NNW,344,4.0,11.0,64,0.00,,,0.00,9,Wunderground v.1.15,2013-03-04 22:15:00,
2013-03-04 17:20:00,37.2,26.5,29.64,North,11,2.0,3.0,65,0.00,,,0.00,7,Wunderground v.1.15,2013-03-04 22:20:00,
2013-03-04 17:25:00,37.1,26.8,29.64,NNE,15,4.0,6.0,66,0.00,,,0.00,5,Wunderground v.1.15,2013-03-04 22:25:00,
2013-03-04 17:30:00,37.0,26.7,29.65,WNW,284,2.0,6.0,66,0.00,,,0.00,0,Wunderground v.1.15,2013-03-04 22:30:00,
2013-03-04 17:35:00,36.8,26.9,29.65,East,86,3.0,10.0,67,0.00,,,0.00,0,Wunderground v.1.15,2013-03-04 22:35:00,
2013-03-04 17:40:00,36.6,27.0,29.65,ENE,76,3.0,4.0,68,0.00,,,0.00,0,Wunderground v.1.15,2013-03-04 22:40:00,
2013-03-04 17:45:00,36.5,26.9,29.65,WNW,297,4.0,13.0,68,0.00,,,0.00,0,Wunderground v.1.15,2013-03-04 22:45:00,
2013-03-04 17:50:00,36.4,27.2,29.66,WSW,249,6.0,6.0,69,0.00,,,0.00,0,Wunderground v.1.15,2013-03-04 22:50:00,
2013-03-04 17:55:00,36.2,27.4,29.66,West,265,4.0,8.0,70,0.00,,,0.00,0,Wunderground v.1.15,2013-03-04 22:55:00,
2013-03-04 18:00:00,36.0,27.2,29.66,NNE,21,2.0,4.0,70,0.00,,,0.00,0,Wunderground v.1.15,2013-03-04 23:00:00,
2013-03-04 18:05:00,35.9,27.1,29.66,WSW,250,1.0,13.0,70,0.00,,,0.00,0,Wunderground v.1.15,2013-03-04 23:05:00,
2013-03-04 18:10:00,35.8,27.0,29.67,West,271,3.0,4.0,70,0.00,,,0.00,0,Wunderground v.1.15,2013-03-04 23:10:00,
2013-03-04 18:15:00,35.6,26.8,29.67,WNW,293,4.0,8.0,70,0.00,,,0.00,0,Wunderground v.1.15,2013-03-04 23:15:00,
2013-03-04 18:20:00,35.6,26.8,29.67,NNW,328,4.0,11.0,70,0.00,,,0.00,0,Wunderground v.1.15,2013-03-04 23:20:00,
2013-03-04 18:25:00,35.5,26.7,29.67,North,360,2.0,11.0,70,0.00,,,0.00,0,Wunderground v.1.15,2013-03-04 23:25:00,
2013-03-04 18:30:00,35.4,26.6,29.67,SE,134,5.0,6.0,70,0.00,,,0.00,0,Wunderground v.1.15,2013-03-04 23:30:00,
2013-03-04 18:35:00,35.3,26.5,29.67,West,263,4.0,7.0,70,0.00,,,0.00,0,Wunderground v.1.15,2013-03-04 23:35:00,
2013-03-04 18:40:00,35.2,26.4,29.68,West,279,0.0,3.0,70,0.00,,,0.00,0,Wunderground v.1.15,2013-03-04 23:40:00,
2013-03-04 18:45:00,35.2,26.7,29.68,NE,42,5.0,13.0,71,0.00,,,0.00,0,Wunderground v.1.15,2013-03-04 23:45:00,
2013-03-04 18:51:00,35.1,26.6,29.68,WNW,283,4.0,5.0,71,0.00,,,0.00,0,Wunderground v.1.15,2013-03-04 23:51:00,
2013-03-04 18:56:00,35.0,26.5,29.68,North,349,0.0,7.0,71,0.00,,,0.00,0,Wunderground v.1.15,2013-03-04 23:56:00,
2013-03-04 19:01:00,34.9,26.8,29.68,WSW,250,5.0,6.0,72,0.00,,,0.00,0,Wunderground v.1.15,2013-03-05 00:01:00,
2013-03-04 19:06:00,34.8,26.7,29.68,NNW,331,12.0,12.0,72,0.00,,,0.00,0,Wunderground v.1.15,2013-03-05 00:06:00,
2013-03-04 19:11:00,34.7,26.6,29.69,NNW,338,2.0,3.0,72,0.00,,,0.00,0,Wunderground v.1.15,2013-03-05 00:11:00,
2013-03-04 19:16:00,34.7,26.9,29.69,NE,51,5.0,8.0,73,0.00,,,0.00,0,Wunderground v.1.15,2013-03-05 00:16:00,
2013-03-04 19:21:00,34.6,26.5,29.69,NW,315,3.0,6.0,72,0.00,,,0.00,0,Wunderground v.1.15,2013-03-05 00:21:00,
2013-03-04 19:26:00,34.5,26.4,29.69,NNE,27,2.0,6.0,72,0.00,,,0.00,0,Wunderground v.1.15,2013-03-05 00:26:00,
2013-03-04 19:31:00,34.4,26.6,29.69,West,278,2.0,5.0,73,0.00,,,0.00,0,Wunderground v.1.15,2013-03-05 00:31:00,
2013-03-04 19:36:00,34.3,26.5,29.69,ESE,115,0.0,9.0,73,0.00,,,0.00,0,Wunderground v.1.15,2013-03-05 00:36:00,
2013-03-04 19:41:00,34.2,26.4,29.69,NE,34,2.0,6.0,73,0.00,,,0.00,0,Wunderground v.1.15,2013-03-05 00:41:00,
2013-03-04 19:46:00,34.1,26.3,29.70,NNE,29,6.0,7.0,73,0.00,,,0.00,0,Wunderground v.1.15,2013-03-05 00:46:00,
2013-03-04 19:51:00,34.1,26.3,29.70,WNW,292,0.0,5.0,73,0.00,,,0.00,0,Wunderground v.1.15,2013-03-05 00:51:00,
2013-03-04 19:56:00,34.0,26.3,29.70,East,82,3.0,12.0,73,0.00,,,0.00,0,Wunderground v.1.15,2013-03-05 00:56:00,
2013-03-04 20:01:00,33.9,25.8,29.70,WNW,284,3.0,4.0,72,0.00,,,0.00,0,Wunderground v.1.15,2013-03-05 01:01:00,
2013-03-04 20:06:00,33.9,26.2,29.70,WNW,287,2.0,4.0,73,0.00,,,0.00,0,Wunderground v.1.15,2013-03-05 01:06:00,
2013-03-04 20:11:00,33.9,26.2,29.70,WSW,251,3.0,3.0,73,0.00,,,0.00,0,Wunderground v.1.15,2013-03-05 01:11:00,
2013-03-04 20:16:00,33.9,26.2,29.70,SSW,207,3.0,8.0,73,0.00,,,0.00,0,Wunderground v.1.15,2013-03-05 01:16:00,
2013-03-04 20:21:00,33.8,26.1,29.70,SW,222,7.0,8.0,73,0.00,,,0.00,0,Wunderground v.1.15,2013-03-05 01:21:00,
2013-03-04 20:26:00,33.8,25.7,29.70,WNW,298,2.0,12.0,72,0.00,,,0.00,0,Wunderground v.1.15,2013-03-05 01:26:00,
2013-03-04 20:31:00,33.9,25.8,29.71,WNW,296,4.0,6.0,72,0.00,,,0.00,0,Wunderground v.1.15,2013-03-05 01:31:00,
2013-03-04 20:36:00,33.9,25.8,29.71,North,355,4.0,10.0,72,0.00,,,0.00,0,Wunderground v.1.15,2013-03-05 01:36:00,
2013-03-04 20:41:00,33.9,25.5,29.71,SW,216,0.0,4.0,71,0.00,,,0.00,0,Wunderground v.1.15,2013-03-05 01:41:00,
2013-03-04 20:46:00,33.9,25.5,29.71,ESE,119,2.0,5.0,71,0.00,,,0.00,0,Wunderground v.1.15,2013-03-05 01:46:00,
2013-03-04 20:51:00,33.9,25.8,29.71,WSW,242,2.0,6.0,72,0.00,,,0.00,0,Wunderground v.1.15,2013-03-05 01:51:00,
2013-03-04 20:56:00,34.0,25.9,29.71,SW,228,1.0,9.0,72,0.00,,,0.00,0,Wunderground v.1.15,2013-03-05 01:56:00,
2013-03-04 21:01:00,33.9,25.8,29.71,NW,323,5.0,7.0,72,0.00,,,0.00,0,Wunderground v.1.15,2013-03-05 02:01:00,
2013-03-04 21:06:00,33.9,25.5,29.71,ENE,71,0.0,7.0,71,0.00,,,0.00,0,Wunderground v.1.15,2013-03-05 02:06:00,
2013-03-04 21:11:00,33.9,25.5,29.72,WNW,295,0.0,3.0,71,0.00,,,0.00,0,Wunderground v.1.15,2013-03-05 02:11:00,
2013-03-04 21:16:00,33.9,25.5,29.72,NE,46,2.0,6.0,71,0.00,,,0.00,0,Wunderground v.1.15,2013-03-05 02:16:00,
2013-03-04 21:21:00,33.9,25.5,29.72,North,355,4.0,6.0,71,0.00,,,0.00,0,Wunderground v.1.15,2013-03-05 02:21:00,
2013-03-04 21:26:00,33.9,25.8,29.72,WNW,292,2.0,10.0,72,0.00,,,0.00,0,Wunderground v.1.15,2013-03-05 02:26:00,
2013-03-04 21:31:00,33.9,25.8,29.72,West,270,3.0,3.0,72,0.00,,,0.00,0,Wunderground v.1.15,2013-03-05 02:31:00,
2013-03-04 21:36:00,33.8,25.7,29.72,WNW,301,1.0,7.0,72,0.00,,,0.00,0,Wunderground v.1.15,2013-03-05 02:36:00,
2013-03-04 21:42:00,33.8,26.1,29.73,WNW,298,1.0,2.0,73,0.00,,,0.00,0,Wunderground v.1.15,2013-03-05 02:42:00,
2013-03-04 21:47:00,33.8,26.1,29.73,NW,324,1.0,5.0,73,0.00,,,0.00,0,Wunderground v.1.15,2013-03-05 02:47:00,
2013-03-04 21:52:00,33.7,25.6,29.73,SW,228,4.0,10.0,72,0.00,,,0.00,0,Wunderground v.1.15,2013-03-05 02:52:00,
2013-03-04 21:57:00,33.6,25.5,29.73,NW,320,4.0,10.0,72,0.00,,,0.00,0,Wunderground v.1.15,2013-03-05 02:57:00,
2013-03-04 22:02:00,33.5,25.8,29.73,West,277,4.0,4.0,73,0.00,,,0.00,0,Wunderground v.1.15,2013-03-05 03:02:00,
2013-03-04 22:07:00,33.4,25.7,29.73,NNE,13,6.0,9.0,73,0.00,,,0.00,0,Wunderground v.1.15,2013-03-05 03:07:00,
2013-03-04 22:13:00,33.4,25.7,29.74,WNW,290,1.0,4.0,73,0.00,,,0.00,0,Wunderground v.1.15,2013-03-05 03:13:00,
2013-03-04 22:18:00,33.3,25.6,29.74,WSW,255,3.0,5.0,73,0.00,,,0.00,0,Wunderground v.1.15,2013-03-05 03:18:00,
2013-03-04 22:23:00,33.3,25.6,29.74,NNW,336,1.0,4.0,73,0.00,,,0.00,0,Wunderground v.1.15,2013-03-05 03:23:00,
2013-03-04 22:28:00,33.2,25.5,29.74,WSW,258,1.0,4.0,73,0.00,,,0.00,0,Wunderground v.1.15,2013-03-05 03:28:00,
2013-03-04 22:33:00,33.1,25.4,29.74,NNE,24,2.0,3.0,73,0.00,,,0.00,0,Wunderground v.1.15,2013-03-05 03:33:00,
2013-03-04 22:38:00,33.0,25.3,29.74,WSW,252,3.0,6.0,73,0.00,,,0.00,0,Wunderground v.1.15,2013-03-05 03:38:00,
2013-03-04 22:43:00,33.0,25.3,29.74,NNE,17,2.0,10.0,73,0.00,,,0.00,0,Wunderground v.1.15,2013-03-05 03:43:00,
2013-03-04 22:48:00,32.9,25.2,29.74,NNW,336,1.0,10.0,73,0.00,,,0.00,0,Wunderground v.1.15,2013-03-05 03:48:00,
2013-03-04 22:53:00,32.9,25.2,29.74,WSW,244,4.0,6.0,73,0.00,,,0.00,0,Wunderground v.1.15,2013-03-05 03:53:00,
2013-03-04 22:58:00,32.8,25.1,29.74,WNW,300,2.0,8.0,73,0.00,,,0.00,0,Wunderground v.1.15,2013-03-05 03:58:00,
2013-03-04 23:03:00,32.8,25.1,29.75,NE,34,5.0,5.0,73,0.00,,,0.00,0,Wunderground v.1.15,2013-03-05 04:03:00,
2013-03-04 23:08:00,32.8,25.4,29.75,WNW,290,2.0,6.0,74,0.00,,,0.00,0,Wunderground v.1.15,2013-03-05 04:08:00,
2013-03-04 23:13:00,32.7,25.0,29.75,West,279,2.0,4.0,73,0.00,,,0.00,0,Wunderground v.1.15,2013-03-05 04:13:00,
2013-03-04 23:18:00,32.6,25.2,29.75,NNE,13,1.0,6.0,74,0.00,,,0.00,0,Wunderground v.1.15,2013-03-05 04:18:00,
2013-03-04 23:23:00,32.6,25.2,29.75,WNW,290,3.0,5.0,74,0.00,,,0.00,0,Wunderground v.1.15,2013-03-05 04:23:00,
2013-03-04 23:28:00,32.6,25.2,29.75,WNW,285,4.0,6.0,74,0.00,,,0.00,0,Wunderground v.1.15,2013-03-05 04:28:00,
2013-03-04 23:33:00,32.5,24.8,29.75,NW,323,2.0,4.0,73,0.00,,,0.00,0,Wunderground v.1.15,2013-03-05 04:33:00,
2013-03-04 23:38:00,32.5,25.1,29.75,SW,216,2.0,6.0,74,0.00,,,0.00,0,Wunderground v.1.15,2013-03-05 04:38:00,
2013-03-04 23:43:00,32.5,25.1,29.75,WNW,292,1.0,4.0,74,0.00,,,0.00,0,Wunderground v.1.15,2013-03-05 04:43:00,
2013-03-04 23:48:00,32.4,24.7,29.75,West,279,3.0,5.0,73,0.00,,,0.00,0,Wunderground v.1.15,2013-03-05 04:48:00,
2013-03-04 23:54:00,32.3,24.6,29.75,NNW,327,1.0,4.0,73,0.00,,,0.00,0,Wunderground v.1.15,2013-03-05 04:54:00,
2013-03-04 23:59:00,32.2,24.5,29.75,NNW,336,1.0,4.0,73,0.00,,,0.00,0,Wunderground v.1.15,2013-03-05 04:59:00,